Tracking 31027 objects as of 19-Jul-2025
HD Live streaming from Space Station
objects crossing your sky now

AETHER-1

Track AETHER-1 now!
10-day predictions


NORAD ID: 58281
Int'l Code: 2023-174AB
Perigee: 463.5 km
Apogee: 471.7 km
Inclination: 97.4 °
Period: 93.8 minutes
Semi major axis: 6838 km
RCS: Unknown
Launch date: November 11, 2023
Source: (CAN)
Launch site: AIR FORCE WESTERN TEST RANGE (AFWTR)
Your satellite tracking list
KORSAT 7
Track 1 satellite(s)




NASA's NSSDC Master Catalog

Two Line Element Set (TLE):
1 58281U 23174AB  25199.49363581  .00019223  00000-0  56489-3 0  9998
2 58281  97.4168 278.8670 0005987 270.7590  89.2967 15.35144024 94191
Source of the keplerian elements: AFSPC